[[{"header":{"parameterUnit":"m.s-1","parameterCategory":1,"la1":30.2991,"la2":30.254,"lo1":-89.0895,"lo2":-89.0444,"dy":0.0017,"dx":0.0017,"nx":28,"ny":28,"refTime":"2024-05-12T09:00:00:Z","depth":0,"parameterNumber":2,"parameterNumberName":"U-component_of_WINDS"},"data":[0,0,0,0,0,0,0,0,0,0,0,0,0,0,0,0,0,0,0,0,0,0,0,0,0,0,0,0,0,0,0,0,0,0,0,0,0,0,0,0,0,0,0,0,0,0,0,0,0,0,0,0,0,0,0,0,0,0,-0.1939,-0.194,0,-0.2096,-0.2098,-0.2099,-0.2192,-0.2192,-0.2193,-0.2193,-0.236,-0.2364,-0.2368,0,0,0,0,0,0,0,0,0,0,0,0,0,-0.1726,-0.1729,-0.1939,-0.1941,-0.1943,-0.2096,-0.2098,-0.21,-0.2192,-0.2192,-0.2193,-0.2193,-0.2359,-0.2363,-0.2368,0,0,0,0,0,0,0,0,0,0,0,0,0,-0.1844,-0.173,-0.1938,-0.2007,-0.2014,-0.2095,-0.2098,-0.2101,-0.2192,-0.2192,-0.2193,-0.2193,-0.2357,-0.2363,-0.2369,-0.2396,0,0,-0.2388,-0.2391,0,0,0,0,0,0,0,0,-0.1837,-0.1852,-0.1995,-0.2002,-0.2011,-0.2125,-0.2084,-0.22,-0.2192,-0.2125,-0.2193,-0.2194,-0.2282,-0.2294,-0.2323,-0.2404,-0.2411,-0.2388,-0.2392,-0.2395,-0.2397,0,0,0,0,0,0,0,-0.1829,-0.1846,-0.2001,-0.1997,-0.2007,-0.2032,-0.2049,-0.2106,-0.2198,-0.213,-0.2137,-0.2154,-0.2286,-0.2316,-0.2327,-0.2413,-0.2388,-0.2394,-0.2397,-0.24,-0.2528,-0.2528,0,0,0,0,0,0,-0.1809,-0.1838,-0.1996,-0.2006,-0.1923,-0.2035,-0.2055,-0.2088,-0.2198,-0.2215,-0.2154,-0.2158,-0.2306,-0.232,-0.2333,-0.2374,-0.2395,-0.2401,-0.2404,-0.2528,-0.2528,-0.2527,0,0,0,0,0,0,-0.1804,-0.1822,-0.199,-0.1924,-0.1947,-0.2038,-0.2075,-0.209,-0.2121,-0.2215,-0.2233,-0.2167,-0.2307,-0.2325,-0.238,-0.2381,-0.2403,-0.2409,-0.2528,-0.2528,-0.2528,-0.2453,0,0,0,0,0,0,-0.1797,-0.182,-0.1829,-0.1923,-0.195,-0.2031,-0.2075,-0.2093,-0.213,-0.2137,-0.2233,-0.2249,-0.2308,-0.237,-0.2386,-0.239,-0.2414,-0.2529,-0.2528,-0.2528,-0.2456,-0.245,-0.2445,0,0,0,0,0,-0.1789,-0.1803,-0.1829,-0.1847,-0.1963,-0.2031,-0.2047,-0.2113,-0.213,-0.2141,-0.2203,-0.2246,-0.2378,-0.2375,-0.2394,-0.2399,-0.2529,-0.2528,-0.2528,-0.2459,-0.2452,-0.2446,0,0,0,0,0,0,-0.1708,-0.1816,-0.1846,-0.189,-0.195,-0.2046,-0.2062,-0.2103,-0.2161,-0.2166,-0.2248,-0.2268,-0.2316,-0.2364,-0.2358,-0.2433,-0.2459,-0.2462,-0.24,-0.2394,-0.2388,-0.2377,-0.2419,0,0,0,0,0,-0.1694,-0.1737,-0.1831,-0.1861,-0.1889,-0.197,-0.2002,-0.2048,-0.2115,-0.2141,-0.2207,-0.2272,-0.2328,-0.2364,-0.2421,-0.2464,-0.2487,-0.2477,-0.2471,-0.2467,-0.2469,-0.2497,-0.2494,-0.2525,-0.2525,-0.2525,0,0,-0.1668,-0.1732,-0.1755,-0.1846,-0.1898,-0.1944,-0.1991,-0.2037,-0.2073,-0.2149,-0.2205,-0.2255,-0.2334,-0.2383,-0.2408,-0.2424,-0.2465,-0.2466,-0.2461,-0.2466,-0.2496,-0.2493,-0.2491,-0.2525,-0.2525,-0.2525,0,0,-0.1643,-0.1695,-0.1726,-0.1777,-0.1855,-0.1909,-0.1917,-0.2007,-0.2043,-0.21,-0.2159,-0.2204,-0.2298,-0.2352,-0.2392,-0.2389,-0.2432,-0.2406,-0.2378,-0.2405,-0.2403,-0.2401,-0.2402,-0.2401,-0.2407,-0.2407,-0.2407,0,-0.1601,-0.1669,-0.1738,-0.178,-0.182,-0.1889,-0.1923,-0.197,-0.2064,-0.209,-0.2106,-0.2228,-0.2285,-0.235,-0.2349,-0.2378,-0.2392,-0.2396,-0.2397,-0.2396,-0.2396,-0.2398,-0.2398,-0.2404,-0.2404,-0.2404,-0.2405,0,-0.1615,-0.1662,-0.1678,-0.1764,-0.1806,-0.1844,-0.1921,-0.1955,-0.1997,-0.2051,-0.211,-0.2181,-0.2255,-0.2273,-0.2316,-0.2344,-0.2352,-0.2381,-0.2409,-0.2388,-0.2391,-0.2392,-0.2398,-0.24,-0.2401,-0.2402,0,0,-0.1542,-0.1666,-0.1671,-0.1712,-0.1804,-0.1843,-0.1886,-0.1956,-0.1984,-0.2047,-0.2087,-0.2166,-0.2194,-0.2239,-0.2289,-0.2312,-0.2308,-0.234,-0.2343,-0.2333,-0.2347,-0.2324,-0.2324,-0.2337,-0.2337,-0.2338,-0.2341,0,-0.1532,-0.1609,-0.1672,-0.1727,-0.1773,-0.184,-0.1878,-0.194,-0.1991,-0.204,-0.2098,-0.2153,-0.2186,-0.2214,-0.224,-0.2303,-0.2312,-0.2303,-0.2377,-0.2379,-0.2356,-0.2325,-0.2302,-0.2301,-0.2342,-0.2342,-0.2342,0,-0.153,-0.1588,-0.1646,-0.1735,-0.1757,-0.1789,-0.1859,-0.1904,-0.1977,-0.2013,-0.2063,-0.2115,-0.2166,-0.2189,-0.2262,-0.2254,-0.2289,-0.2325,-0.2326,-0.2337,-0.236,-0.2336,-0.2302,-0.2302,-0.2345,-0.2345,-0.2344,0,-0.1473,-0.1566,-0.1613,-0.1646,-0.175,-0.1772,-0.1817,-0.189,-0.1928,-0.1991,-0.2018,-0.2086,-0.2124,-0.2177,-0.2247,-0.2256,-0.2313,-0.2341,-0.2347,-0.2345,-0.2356,-0.2355,-0.2328,-0.2376,-0.2376,-0.2376,-0.2376,0,-0.1455,-0.1488,-0.1589,-0.1618,-0.1659,-0.1733,-0.1773,-0.1824,-0.1888,-0.1931,-0.1994,-0.2034,-0.2123,-0.2174,-0.2229,-0.2283,-0.2299,-0.2332,-0.2346,-0.2326,-0.2322,-0.2351,-0.2353,-0.2376,-0.2376,-0.2376,-0.2376,0,-0.1398,-0.1467,-0.1523,-0.1617,-0.1641,-0.1667,-0.1749,-0.1782,-0.1837,-0.189,-0.1907,-0.1995,-0.2058,-0.2133,-0.2221,-0.2258,-0.2308,-0.2329,-0.2282,-0.2291,-0.2293,-0.2292,-0.2284,-0.2288,-0.2331,-0.2331,-0.233,0,-0.1383,-0.141,-0.1506,-0.1538,-0.1581,-0.1632,-0.1671,-0.1746,-0.1786,-0.1871,-0.1894,-0.1962,-0.202,-0.2119,-0.2192,-0.226,-0.2284,-0.2277,-0.2295,-0.2275,-0.2286,-0.2284,-0.2288,-0.2272,-0.2271,-0.227,-0.227,0,-0.1349,-0.1381,-0.1435,-0.15,-0.1546,-0.1602,-0.1661,-0.1684,-0.1772,-0.1813,-0.1877,-0.1922,-0.2012,-0.208,-0.2157,-0.2207,-0.2254,-0.2263,-0.2269,-0.2249,-0.2222,-0.2239,-0.227,-0.2264,-0.2264,-0.2265,-0.2265,-0.2265,-0.1314,-0.1342,-0.1414,-0.1472,-0.1524,-0.1578,-0.1613,-0.1672,-0.1727,-0.1804,-0.1846,-0.191,-0.1985,-0.2094,-0.2142,-0.2195,-0.2211,-0.2218,-0.2221,-0.2222,-0.2216,-0.2212,-0.221,-0.221,-0.221,-0.221,-0.2211,0,-0.1284,-0.1334,-0.1386,-0.1466,-0.1513,-0.155,-0.1618,-0.1655,-0.171,-0.1775,-0.183,-0.1906,-0.1972,-0.205,-0.2122,-0.215,-0.2174,-0.2167,-0.2166,-0.2177,-0.2197,-0.2186,-0.2146,-0.2146,-0.2146,-0.2146,-0.2146,-0.2146,-0.1274,-0.1324,-0.1366,-0.1443,-0.1494,-0.1555,-0.1591,-0.1642,-0.1694,-0.1775,-0.1829,-0.1879,-0.195,-0.2028,-0.2091,-0.2113,-0.2138,-0.2124,-0.2152,-0.217,-0.2175,-0.2181,-0.2171,-0.2128,-0.2128,-0.2128,-0.2128,-0.2128]},{"header":{"parameterUnit":"m.s-1","parameterCategory":1,"la1":30.2991,"la2":30.254,"lo1":-89.0895,"lo2":-89.0444,"dy":0.0017,"dx":0.0017,"nx":28,"ny":28,"refTime":"2024-05-12T09:00:00:Z","depth":0,"parameterNumber":3,"parameterNumberName":"V-component_of_WINDS"},"data":[0,0,0,0,0,0,0,0,0,0,0,0,0,0,0,0,0,0,0,0,0,0,0,0,0,0,0,0,0,0,0,0,0,0,0,0,0,0,0,0,0,0,0,0,0,0,0,0,0,0,0,0,0,0,0,0,0,0,6.9796,6.9798,0,6.9946,6.9948,6.9949,6.9927,6.9925,6.9922,6.992,7.0068,7.0074,7.008,0,0,0,0,0,0,0,0,0,0,0,0,0,6.9485,6.9491,6.9796,6.9798,6.98,6.9946,6.9948,6.995,6.9928,6.9925,6.9922,6.9919,7.0066,7.0073,7.0081,0,0,0,0,0,0,0,0,0,0,0,0,0,6.9626,6.9493,6.9796,6.9807,6.9809,6.9945,6.9948,6.995,6.9928,6.9925,6.9921,6.9917,7.0063,7.0072,7.0082,7.0215,0,0,7.011,7.0115,0,0,0,0,0,0,0,0,6.9618,6.9637,6.9803,6.9806,6.9809,6.9914,6.9892,7.0039,6.9929,6.9883,6.992,6.9916,7.0019,7.0032,7.0068,7.0222,7.0228,7.0111,7.0117,7.0121,7.0124,0,0,0,0,0,0,0,6.9608,6.9631,6.9855,6.9806,6.9809,6.9802,6.9818,6.992,6.997,6.9887,6.9885,6.9904,7.002,7.0059,7.0072,7.023,7.0111,7.0119,7.0125,7.0129,7.05,7.0504,0,0,0,0,0,0,6.9596,6.9623,6.985,6.986,6.9703,6.9811,6.9828,6.9884,6.9969,6.9979,6.9907,6.9902,7.0045,7.0061,7.0077,7.0238,7.0121,7.013,7.0135,7.0496,7.0501,7.0505,0,0,0,0,0,0,6.959,6.9617,6.9844,6.9741,6.977,6.982,6.9883,6.9889,6.9928,6.9984,6.9993,6.9938,7.0043,7.0063,7.0181,7.0243,7.0134,7.0143,7.0491,7.0497,7.0503,7.0562,0,0,0,0,0,0,6.9581,6.9615,6.9667,6.9743,6.9775,6.9948,6.9887,6.9895,6.9945,6.9941,7.0016,7.0025,7.0041,7.0167,7.019,7.0254,7.015,7.0485,7.0494,7.0501,7.0554,7.0569,7.0582,0,0,0,0,0,6.957,6.9677,6.967,6.9698,6.9842,6.9952,6.997,6.9989,6.995,7.0003,7.0039,7.0022,7.0232,7.0179,7.0205,7.0272,7.0481,7.0491,7.05,7.0548,7.0566,7.0581,0,0,0,0,0,0,6.9606,6.9687,6.968,6.9815,6.9877,6.9948,7.0015,7.0008,7.008,7.0073,7.0091,7.0108,7.0227,7.0261,7.0201,7.0405,7.0351,7.0366,7.0379,7.0396,7.041,7.0398,7.0158,0,0,0,0,0,6.963,6.9714,6.9779,6.9892,6.9923,6.9964,7.0012,7.0021,7.0085,7.0111,7.0155,7.0216,7.0296,7.0348,7.0425,7.0559,7.0574,7.0618,7.0632,7.0643,7.0655,7.0728,7.0748,7.0536,7.0536,7.0536,0,0,6.9679,6.9734,6.9785,6.99,6.9949,7.0034,6.9986,7.0077,7.014,7.0124,7.0238,7.0273,7.0342,7.0469,7.0527,7.0501,7.0717,7.0655,7.0663,7.067,7.074,7.076,7.0777,7.0543,7.0542,7.0541,0,0,6.9813,6.9863,6.9962,7.0013,7.0088,7.0114,7.0138,7.021,7.0233,7.0349,7.0338,7.0412,7.0549,7.0599,7.0642,7.0794,7.0781,7.0818,7.0889,7.096,7.0977,7.0992,7.1045,7.1064,7.0831,7.0831,7.0831,0,6.9864,6.9993,7.0013,7.0107,7.0157,7.0148,7.0247,7.0295,7.039,7.0424,7.0395,7.0567,7.0613,7.075,7.0788,7.0823,7.0849,7.0809,7.0973,7.0988,7.1002,7.1053,7.1073,7.0835,7.0834,7.0834,7.0834,0,7.0052,7.0142,7.0213,7.0307,7.0365,7.0461,7.0494,7.055,7.0554,7.0582,7.0699,7.0754,7.0841,7.0875,7.0879,7.1013,7.0994,7.0969,7.0915,7.1026,7.1074,7.1094,7.084,7.0839,7.0838,7.0837,0,0,7.0213,7.0317,7.0343,7.0385,7.0468,7.0537,7.0631,7.0718,7.0765,7.0831,7.091,7.1026,7.1003,7.1052,7.1062,7.1124,7.124,7.1091,7.1093,7.1116,7.139,7.1408,7.143,7.1232,7.1236,7.1239,7.1383,0,7.0353,7.0523,7.0543,7.0693,7.0775,7.0768,7.085,7.0908,7.0938,7.101,7.1041,7.1123,7.1087,7.1117,7.1178,7.1213,7.1295,7.1203,7.1304,7.1307,7.1286,7.1456,7.1476,7.1609,7.1403,7.1406,7.1408,0,7.0541,7.0614,7.0772,7.0843,7.0878,7.0952,7.1033,7.1103,7.1168,7.1185,7.124,7.1242,7.1337,7.128,7.1411,7.1348,7.139,7.1414,7.1419,7.1429,7.1364,7.1469,7.1652,7.1672,7.1438,7.1436,7.1434,0,7.064,7.0778,7.0891,7.0928,7.1013,7.1065,7.1103,7.1165,7.1215,7.1285,7.1318,7.1398,7.1442,7.1502,7.1525,7.1481,7.1655,7.1599,7.167,7.1669,7.1706,7.1703,7.1898,7.1735,7.1734,7.1734,7.1733,0,7.0795,7.0892,7.0937,7.1006,7.1114,7.1136,7.1241,7.1276,7.1331,7.1406,7.1404,7.1473,7.1499,7.1572,7.159,7.1695,7.1715,7.173,7.1733,7.173,7.1728,7.1757,7.1748,7.1739,7.1738,7.1737,7.1736,0,7.0925,7.0959,7.1081,7.1152,7.1172,7.1249,7.1309,7.1374,7.1403,7.1497,7.152,7.1564,7.165,7.1679,7.1782,7.1794,7.1917,7.1912,7.1895,7.1896,7.1964,7.1957,7.2184,7.2214,7.2032,7.2033,7.2035,0,7.1021,7.1096,7.1175,7.1226,7.1266,7.1347,7.14,7.1423,7.1477,7.1558,7.1613,7.1699,7.1769,7.1906,7.1946,7.2025,7.2022,7.2096,7.2034,7.2028,7.2022,7.2017,7.2024,7.2108,7.2109,7.2111,7.2112,0,7.1188,7.1201,7.1278,7.136,7.1423,7.1489,7.1552,7.1593,7.1625,7.1686,7.1775,7.1829,7.1936,7.202,7.2101,7.2137,7.213,7.2132,7.2152,7.2149,7.2136,7.2143,7.1926,7.2126,7.2125,7.2124,7.2123,7.2123,7.1304,7.1369,7.1436,7.1521,7.1571,7.163,7.1695,7.1733,7.1808,7.1897,7.1906,7.2002,7.2064,7.2172,7.2212,7.2286,7.2265,7.2294,7.2302,7.2309,7.2314,7.2125,7.2301,7.23,7.23,7.23,7.2299,0,7.147,7.1512,7.159,7.168,7.1746,7.1735,7.1804,7.186,7.1945,7.2004,7.2073,7.2175,7.2257,7.2304,7.2385,7.2435,7.2434,7.2455,7.2452,7.246,7.2328,7.2302,7.2455,7.2455,7.2455,7.2455,7.2455,7.2455,7.1564,7.1675,7.1696,7.183,7.1872,7.1967,7.2007,7.2061,7.2108,7.2222,7.2291,7.2322,7.2376,7.2461,7.2535,7.2547,7.2576,7.26,7.2609,7.2485,7.2469,7.2454,7.243,7.2607,7.2607,7.2735,7.2736,7.2737]}]]